Overview Statistics Trail Chart Weather Telemetry Raw packets
 

This is the latest recevied weather packets stored in our database for station/object K5FEP. If no packets are shown the sender has not sent any weather packets the latest 10 day(s).

<< 69 70 71 72 73 74 75 >>
Time Temp. Humidity Pressure Rain* Wind** Luminosity Snow
1788147962 22.22° C 90% 1019.8 hPa 0 mm - 0 W/m² -
1788147658 22.22° C 90% 1019.7 hPa 0 mm - 0 W/m² -
1788147353 22.22° C 90% 1019.9 hPa 0 mm - 0 W/m² -
1788147048 22.78° C 90% 1019.8 hPa 0 mm - 0 W/m² -
1788146747 22.22° C 91% 1019.7 hPa 0 mm - 0 W/m² -
1788146443 22.22° C 90% 1019.9 hPa 0 mm - 0 W/m² -
1788146143 22.22° C 89% 1019.9 hPa 0 mm - 0 W/m² -
1788145842 22.78° C 89% 1019.9 hPa 0 mm - 0 W/m² -
1788145541 22.78° C 88% 1020 hPa 0 mm - 0 W/m² -
1788145241 22.78° C 88% 1019.8 hPa 0 mm - 0 W/m² -
1788144939 22.78° C 88% 1019.8 hPa 0 mm - 0 W/m² -
1788144635 22.78° C 87% 1020 hPa 0 mm - 0 W/m² -
1788144330 22.78° C 87% 1019.7 hPa 0 mm - 0 W/m² -
1788144029 23.33° C 87% 1019.8 hPa 0 mm - 0 W/m² -
1788143727 23.33° C 87% 1019.8 hPa 0 mm - 0 W/m² -
1788143428 23.33° C 86% 1019.9 hPa 0 mm - 0 W/m² -
1788143127 23.33° C 85% 1019.8 hPa 0 mm - 0 W/m² -
1788142822 23.89° C 85% 1019.8 hPa 0 mm - 0 W/m² -
1788142521 23.89° C 84% 1019.8 hPa 0 mm - 0 W/m² -
1788142218 23.89° C 84% 1019.7 hPa 0 mm - 0 W/m² -
1788141913 23.89° C 83% 1019.5 hPa 0 mm - 0 W/m² -
1788141607 24.44° C 82% 1019.5 hPa 0 mm - 0 W/m² -
1788141303 24.44° C 81% 1019.8 hPa 0 mm - 0 W/m² -
1788140997 25° C 80% 1019.8 hPa 0 mm - 0 W/m² -
1788140693 25° C 80% 1019.7 hPa 0 mm - 0 W/m² -

* Rain latest hour (hover to see other rain measurements)
** Current wind speed in m/s (hover to see current wind gust speed)